Change the Weather History Date:

Monday, September 10, 2012

  Actual Average Record
Temperature  
Mean Temperature 55 °F 61 °F  
Max Temperature 63 °F 71 °F 85 °F (1961)
Min Temperature 46 °F 50 °F 30 °F (1956)
Degree Days  
Heating Degree Days 10 5  
Month to date heating degree days 13 40  
Since 1 July heating degree days 37 118  
Cooling Degree Days 0 1  
Month to date cooling degree days 25 13  
Year to date cooling degree days 465 283  
Growing Degree Days 4 (Base 50)    
Moisture  
Dew Point 45 °F    
Average Humidity 72    
Maximum Humidity 93    
Minimum Humidity 51    
Precipitation  
Precipitation 0.00 in 0.12 in 1.33 in (1950)
Month to date precipitation 1.85 1.10  
Year to date precipitation 22.98 30.88  
Sea Level Pressure  
Sea Level Pressure 29.96 in    
Wind  
Wind Speed 7 mph (WNW)    
Max Wind Speed 18 mph    
Max Gust Speed 26 mph    
Visibility 10 miles    
Events      
T = Trace of Precipitation, MM = Missing Value Source: NWS Daily Summary

Daily Weather History Graph

Daily Weather History Graph

Search for Another Location

Airport or City:

Trip Planner

Search our weather history database for the weather conditions in past years. The results will help you decide how hot, cold, wet, or windy it might be!

Date:

Astronomy

Sep. 10, 2012 Rise Set
Actual Time 6:28 AM EDT 7:10 PM EDT
Civil Twilight 5:59 AM EDT 7:39 PM EDT
Nautical Twilight 5:26 AM EDT 8:12 PM EDT
Astronomical Twilight 4:51 AM EDT 8:47 PM EDT
Moon 12:41 AM EDT (9/10) 3:43 PM EDT (9/10)
Length of Visible Light 13h 39m
Length of Day
12h 42m
Waning Crescent, 30% of the Moon is Illuminated
Sep 10
Waning Crescent
Sep 15
New
Sep 22
First Quarter
Sep 29
Full
Oct 8
Last Quarter

Hourly Weather History & Observations

Time (EDT) Temp. Windchill Dew Point Humidity Pressure Visibility Wind Dir Wind Speed Gust Speed Precip Events Conditions
12:54 AM 55.0 °F - 50.0 °F 83% 29.86 in 10.0 mi Calm Calm - N/A   Clear
1:54 AM 55.0 °F - 48.9 °F 80% 29.86 in 10.0 mi West 3.5 mph - N/A   Clear
2:54 AM 53.1 °F - 48.9 °F 86% 29.86 in 10.0 mi West 4.6 mph - N/A   Clear
3:54 AM 51.1 °F - 48.0 °F 89% 29.87 in 10.0 mi Calm Calm - N/A   Clear
4:54 AM 48.9 °F - 46.9 °F 93% 29.87 in 10.0 mi West 5.8 mph - N/A   Partly Cloudy
5:54 AM 50.0 °F - 48.0 °F 93% 29.90 in 10.0 mi WSW 8.1 mph - N/A   Clear
6:54 AM 50.0 °F - 46.9 °F 89% 29.92 in 10.0 mi West 3.5 mph - N/A   Clear
7:54 AM 53.1 °F - 48.9 °F 86% 29.94 in 10.0 mi WNW 3.5 mph - N/A   Clear
8:54 AM 57.0 °F - 46.9 °F 69% 29.94 in 10.0 mi NNW 6.9 mph - N/A   Clear
9:54 AM 59.0 °F - 50.0 °F 72% 29.95 in 10.0 mi Variable 6.9 mph - N/A   Clear
10:54 AM 60.1 °F - 46.9 °F 62% 29.95 in 10.0 mi WNW 11.5 mph - N/A   Scattered Clouds
11:54 AM 60.1 °F - 46.0 °F 60% 29.96 in 10.0 mi NW 8.1 mph 16.1 mph N/A   Mostly Cloudy
12:54 PM 60.1 °F - 46.9 °F 62% 29.96 in 10.0 mi NNW 9.2 mph - N/A   Overcast
1:54 PM 60.1 °F - 45.0 °F 57% 29.96 in 10.0 mi NW 13.8 mph 20.7 mph N/A   Mostly Cloudy
2:54 PM 60.1 °F - 43.0 °F 53% 29.95 in 10.0 mi NW 11.5 mph 21.9 mph N/A   Overcast
3:54 PM 61.0 °F - 42.1 °F 50% 29.96 in 10.0 mi NW 9.2 mph - N/A   Overcast
4:54 PM 59.0 °F - 41.0 °F 51% 29.98 in 10.0 mi NNW 12.7 mph 20.7 mph N/A   Overcast
5:54 PM 57.9 °F - 42.1 °F 56% 30.00 in 10.0 mi NW 9.2 mph 18.4 mph N/A   Partly Cloudy
6:54 PM 55.0 °F - 41.0 °F 59% 30.01 in 10.0 mi NW 8.1 mph - N/A   Clear
7:54 PM 53.1 °F - 41.0 °F 64% 30.04 in 10.0 mi WNW 5.8 mph - N/A   Clear
8:54 PM 51.1 °F - 41.0 °F 68% 30.06 in 10.0 mi Variable 5.8 mph - N/A   Clear
9:54 PM 50.0 °F - 39.0 °F 66% 30.07 in 10.0 mi NW 5.8 mph - N/A   Clear
10:54 PM 48.0 °F - 39.9 °F 74% 30.08 in 10.0 mi Calm Calm - N/A   Clear
11:54 PM 46.0 °F 44.8 °F 39.0 °F 76% 30.09 in 10.0 mi WNW 3.5 mph - N/A   Clear